SVYATOBOR 1 (RS60S)

Last updated on Tue Aug 25 2026 00:03:14 GMT+0000 (Coordinated Universal Time)

1 57187U 23091X 26236.59726730 .00007961 00000+0 29733-3 0 9990 2 57187 97.5039 300.8209 0008535 201.0347 159.0542 15.27618363174755
UTC large
Height (km)
Speed (km/s)
/
Latitude / Longitude
Inclination (degrees)
Orbital Period (minutes)
Azimuth
Elevation
Range (km)
Doppler Factor

Next 0 passes for location: London (51.5072 / 0.1276)

No passes found over London.
SVYATOBOR 1 (RS60S)